Date String (YYYY-MM-DD hh:mm:ss) UTC,Instrument flags,Ambient pressure (hPa),Sample flow (lpm),Bypass flow (lpm),Sample temperature (°C),Ambient temperature (°C),ASC tube jacket temperature (°C),LED temperature (°C),Box temperature (°C),Sample RH (%),Span deviation,Mass concentration (μg/m³),Mass concentration (μg/m³),Mass concentration (μg/m³)
DateTimeUTC,F1_M11,P_M11,Q1_M11,Q2_M11,T1_M11,T2_M11,T3_M11,T4_M11,T5_M11,U1_M11,ZSPAN_M11,X0_M11,X2_M11,X1_M11
2021-09-08 01:00:00,,0831.7,5.00,0.00,29.1,26.7,00.0,38.2,30.8,18.1,0001.5,0069.08,0041.52,0038.12
2021-09-08 01:01:00,,0831.6,5.00,0.00,29.1,27.2,00.0,38.2,30.9,18.0,0001.6,0069.59,0041.50,0038.05
2021-09-08 01:02:00,,0831.7,4.99,0.00,29.1,27.6,00.0,38.2,31.0,18.0,0001.7,0069.23,0041.36,0037.90
2021-09-08 01:03:00,,0831.7,4.99,0.00,29.2,27.9,00.0,38.2,31.1,17.9,0001.7,0068.39,0041.36,0037.88
2021-09-08 01:04:00,,0831.7,5.00,0.00,29.2,28.2,00.0,38.2,31.2,17.9,0001.8,0066.79,0041.32,0037.88
2021-09-08 01:05:00,,0831.6,5.00,0.00,29.3,28.4,00.0,38.2,31.2,17.8,0001.8,0065.82,0041.29,0037.84
2021-09-08 01:06:00,,0831.6,5.01,0.00,29.4,28.6,00.0,38.3,31.3,17.8,0001.9,0065.06,0041.26,0037.79
2021-09-08 01:07:00,,0831.6,4.98,0.00,29.4,28.7,00.0,38.3,31.3,17.6,0002.1,0064.58,0041.22,0037.75
2021-09-08 01:08:00,,0831.6,5.01,0.00,29.4,27.3,00.0,38.3,31.0,17.5,0001.8,0065.04,0041.18,0037.69
2021-09-08 01:09:00,,0831.6,5.01,0.00,29.2,25.6,00.0,38.3,30.5,17.7,0001.5,0065.62,0041.13,0037.63
2021-09-08 01:10:00,,0831.7,4.99,0.00,29.1,25.7,00.0,38.3,30.5,17.8,0001.8,0066.11,0041.09,0037.57
2021-09-08 01:11:00,,0831.6,5.00,0.00,29.1,26.1,00.0,38.2,30.6,17.8,0001.7,0066.48,0041.05,0037.51
2021-09-08 01:12:00,,0831.7,5.01,0.00,29.1,26.6,00.0,38.2,30.7,17.9,0001.6,0064.66,0040.90,0037.43
2021-09-08 01:13:00,,0831.7,4.98,0.00,29.1,27.1,00.0,38.2,30.8,17.9,0001.4,0063.55,0040.82,0037.45
2021-09-08 01:14:00,,0831.7,5.02,0.00,29.1,27.5,00.0,38.2,31.0,17.9,0001.6,0065.15,0040.78,0037.43
2021-09-08 01:15:00,,0831.7,4.99,0.00,29.2,27.8,00.0,38.2,31.0,17.8,0001.6,0066.29,0040.74,0037.38
2021-09-08 01:16:00,,0831.7,5.01,0.00,29.2,28.1,00.0,38.2,31.1,17.7,0001.7,0068.30,0040.69,0037.30
2021-09-08 01:17:00,,0831.7,5.00,0.00,29.3,28.3,00.0,38.2,31.2,17.7,0002.4,0069.37,0040.62,0037.26
2021-09-08 01:18:00,,0831.7,4.99,0.00,29.3,28.5,00.0,38.3,31.3,17.6,0002.1,0069.83,0040.45,0037.19
2021-09-08 01:19:00,,0831.7,5.01,0.00,29.4,28.7,00.0,38.3,31.3,17.6,0002.2,0069.98,0040.40,0037.17
2021-09-08 01:20:00,,0831.7,5.00,0.00,29.5,28.8,00.0,38.3,31.4,17.5,0002.3,0069.88,0040.46,0037.20
2021-09-08 01:21:00,,0831.7,5.00,0.00,29.5,27.9,00.0,38.3,31.2,17.5,0002.1,0069.29,0040.46,0037.21
2021-09-08 01:22:00,,0831.7,5.01,0.00,29.3,25.9,00.0,38.3,30.6,17.7,0002.0,0069.16,0040.47,0037.22
2021-09-08 01:23:00,,0831.7,5.00,0.00,29.1,25.5,00.0,38.3,30.4,17.9,0002.0,0070.08,0040.52,0037.24
2021-09-08 01:24:00,,0831.7,4.99,0.00,29.1,25.9,00.0,38.3,30.6,18.0,0002.2,0071.19,0040.56,0037.20
2021-09-08 01:25:00,,0831.8,5.01,0.00,29.1,26.4,00.0,38.2,30.7,18.3,0002.0,0070.97,0040.49,0037.12
2021-09-08 01:26:00,,0831.9,5.00,0.00,29.1,26.9,00.0,38.2,30.8,18.4,0002.2,0070.10,0040.42,0037.03
2021-09-08 01:27:00,,0832.0,5.00,0.00,29.1,27.3,00.0,38.2,30.9,18.7,0002.1,0068.75,0040.39,0037.05
2021-09-08 01:28:00,,0832.0,5.00,0.00,29.2,27.7,00.0,38.2,31.0,18.7,0001.5,0069.09,0040.35,0036.98
2021-09-08 01:29:00,,0832.0,5.01,0.00,29.2,28.0,00.0,38.2,31.1,18.7,0001.5,0069.50,0040.27,0036.91
2021-09-08 01:30:00,,0832.0,5.00,0.00,29.3,28.2,00.0,38.2,31.2,18.7,0001.9,0069.34,0040.17,0036.84
2021-09-08 01:31:00,,0832.0,4.99,0.00,29.3,28.4,00.0,38.3,31.2,18.6,0002.2,0069.30,0040.02,0036.73
2021-09-08 01:32:00,,0832.0,5.00,0.00,29.4,28.6,00.0,38.3,31.3,18.6,0002.1,0069.66,0039.91,0036.61
2021-09-08 01:33:00,,0831.9,5.02,0.00,29.4,28.7,00.0,38.3,31.4,18.5,0002.3,0068.76,0039.76,0036.50
2021-09-08 01:34:00,,0831.9,4.99,0.00,29.5,28.5,00.0,38.4,31.3,18.5,0002.4,0068.19,0039.73,0036.45
2021-09-08 01:35:00,,0831.9,5.00,0.00,29.4,26.5,00.0,38.3,30.8,18.7,0002.3,0067.65,0039.63,0036.37
2021-09-08 01:36:00,,0832.0,5.00,0.00,29.2,25.4,00.0,38.3,30.5,18.9,0002.3,0066.79,0039.54,0036.29
2021-09-08 01:37:00,,0832.0,4.99,0.00,29.1,25.7,00.0,38.3,30.6,19.1,0002.2,0067.46,0039.47,0036.23
2021-09-08 01:38:00,,0832.0,5.01,0.00,29.1,26.2,00.0,38.3,30.7,19.2,0002.0,0068.62,0039.45,0036.16
2021-09-08 01:39:00,,0832.0,5.01,0.00,29.1,26.7,00.0,38.2,30.8,19.2,0002.0,0066.80,0039.40,0036.14
2021-09-08 01:40:00,,0832.1,4.99,0.00,29.1,27.2,00.0,38.2,30.9,19.2,0002.1,0065.34,0039.35,0036.13
2021-09-08 01:41:00,,0832.1,5.01,0.00,29.2,27.5,00.0,38.2,31.0,19.3,0001.8,0065.00,0039.28,0036.09
2021-09-08 01:42:00,,0832.1,4.99,0.00,29.2,27.8,00.0,38.2,31.1,19.3,0001.6,0065.90,0039.25,0036.04
2021-09-08 01:43:00,,0832.1,5.01,0.00,29.3,28.1,00.0,38.2,31.1,19.2,0001.5,0066.10,0039.19,0035.99
2021-09-08 01:44:00,,0832.1,5.00,0.00,29.3,28.3,00.0,38.3,31.2,19.1,0001.6,0066.55,0039.09,0035.91
2021-09-08 01:45:00,,0832.1,5.01,0.00,29.4,28.5,00.0,38.3,31.3,19.0,0001.6,0066.20,0039.04,0035.85
2021-09-08 01:46:00,,0832.1,5.00,0.00,29.4,28.7,00.0,38.3,31.3,19.0,0001.5,0066.37,0039.05,0035.85
2021-09-08 01:47:00,,0832.0,5.00,0.00,29.5,28.8,00.0,38.4,31.4,18.9,0001.3,0066.69,0039.01,0035.89
2021-09-08 01:48:00,,0832.1,5.01,0.00,29.5,28.3,00.0,38.4,31.3,19.0,0001.5,0065.59,0038.96,0035.90
2021-09-08 01:49:00,,0832.0,4.99,0.00,29.4,26.3,00.0,38.4,30.7,19.1,0001.7,0064.96,0038.89,0035.87
2021-09-08 01:50:00,,0832.0,5.00,0.00,29.2,25.4,00.0,38.3,30.4,19.3,0001.6,0065.19,0038.81,0035.79
2021-09-08 01:51:00,,0832.1,4.99,0.00,29.1,25.8,00.0,38.3,30.5,19.4,0001.6,0066.43,0038.87,0035.74
2021-09-08 01:52:00,,0832.1,5.00,0.00,29.1,26.3,00.0,38.3,30.6,19.5,0001.5,0065.85,0038.90,0035.67
2021-09-08 01:53:00,,0832.1,5.01,0.00,29.1,26.7,00.0,38.2,30.7,19.4,0001.3,0066.08,0038.80,0035.62
2021-09-08 01:54:00,,0832.2,5.00,0.00,29.1,27.2,00.0,38.2,30.8,19.4,0001.3,0066.07,0038.79,0035.57
2021-09-08 01:55:00,,0832.1,5.00,0.00,29.1,27.5,00.0,38.2,30.9,19.4,0001.2,0065.83,0038.85,0035.54
2021-09-08 01:56:00,,0832.2,5.00,0.00,29.2,27.8,00.0,38.2,31.0,19.4,0001.2,0067.23,0038.85,0035.49
2021-09-08 01:57:00,,0832.2,5.00,0.00,29.2,28.1,00.0,38.3,31.1,19.3,0001.1,0066.77,0038.74,0035.36
2021-09-08 01:58:00,,0832.2,4.99,0.00,29.3,28.3,00.0,38.3,31.2,19.3,0001.3,0066.85,0038.71,0035.25
2021-09-08 01:59:00,,0832.3,5.01,0.00,29.3,28.5,00.0,38.3,31.2,19.2,0001.1,0068.37,0038.78,0035.22
